QBEE50-LTU-OC (42708 NORAD) Tracking and Keplerian Element Data

This shows tracking and keplerian element data for the satellite.

Feedback or suggestion? Click here.




ElementValue
Catalog42708
NameQBEE50-LTU-OC
Epoch Orbit8579
Epoch Day319.89587915
Epoch Year2018
RAAN294.2061
Inclination51.6286
Eccentricity0.0004056
Argument of Perigee78.4739
Mean Anonmoly281.6719
Mean Motion15.83006001
Decay Rate0.00061147
L11 42708U 98067LR 18319.89587915 .00061147 00000-0 28119-3 0 9998
L22 42708 51.6286 294.2061 0004056 78.4739 281.6719 15.83006001 85795

Live tracking and technical data element details for QBEE50-LTU-OC (NORAD 42708). QBEE50-LTU-OC can be tracked NOW for your location showing map with azimuth and elevation plus other details from your city location.

Track the satellite on the map from your city or location and see movement details for azimuth, elevation, latitude, longitude, range, height, and movement on the map or in text.







IsCatalogInMostPopularTable: catalog: 42708, numindb: 168
Update: records affected: 1



GetName: 42708 QBEE50-LTU-OC

Hit Count: updated at: Fri, 16 Nov 2018 09:53:05 GMT